User: anonymous   Login
Location: Cluny
(50.9333°N, 112.8167°W)
Time: 12:56:33
(UTC-06:00)
Language:

Cosmos 1743 Rocket - Orbit

View from above orbital plane
View from above orbital plane
View from above satellite
View from above satellite

Ground track
Ground track

The orbit data is extracted from the following two-line orbital elements,

1 16720U 86034B   14302.81875709  .00000519  00000-0  60899-4 0  5977
2 16720 082.5564 057.5842 0020914 036.5506 120.9336 14.82846051536760
Epoch (UTC): 29 October 2014 19:39:00
Eccentricity: 0.0020914
inclination: 82.5564°
perigee height: 606 km
apogee height: 635 km
right ascension of ascending node: 57.5842°
argument of perigee: 36.5506°
revolutions per day: 14.82846051
mean anomaly at epoch: 120.9336°
orbit number at epoch: 53676

The dashed part of the orbit path shows where the satellite is in the earth's shadow,  

DLR